www.pogodaiklimat.ru

Погода и климат >> Архив погоды >> Франц. Южн. Территории >> Мартен-де-Вивье


ПОГОДА в Мартен-де-Вивье

  • Прогноз погоды в Мартен-де-Вивье
  • Монитор погоды в Мартен-де-Вивье

АРХИВ ПОГОДЫ в Мартен-де-Вивье

Время (UTC), дата Ветер
(напр.,м/с)
 
Видим.   Явления Облачность Т
(С)
Тd
(С)
f
(%)
Тe
(С)
Тes
(С)
Комфортность P
(гПа)
Po
(гПа)
Тmin
(С)
Tmax
(С)
R
(мм)
R24
(мм)
S
(см)
16 15.03 Ю 1 н/о н/о +13.5 +8.5 72 +14 +14 1028.8 1025.3 +12.8 +16.6
17 15.03 Ю 1 н/о н/о +13.3 +8.6 73 +14 +14 1028.6 1025.1 +12.8 +16.6
18 15.03 Ю 1 н/о н/о +13.6 +9.0 74 +14 +14 1028.2 1024.7 +12.8 +16.6
19 15.03 Ю 1 н/о н/о +13.5 +9.2 75 +15 +15 1027.9 1024.4 +12.8 +16.6
20 15.03 ЮЗ 1 н/о н/о +13.9 +9.3 74 +15 +15 1027.5 1024.0 +12.8 +16.6
21 15.03 Ю 1 н/о н/о +14.4 +9.2 71 +16 +16 1027.0 1023.5 +12.8 +16.6
22 15.03 З 1 н/о н/о +14.5 +8.0 65 +15 +15 1026.7 1023.2 +12.8 +16.6
23 15.03 З 2 н/о н/о +14.6 +9.4 71 +15 +15 1026.4 1022.9 +13.0 +16.6
00 16.03 З 2 н/о н/о +13.9 +9.7 76 +14 +14 1026.4 1022.9 +13.0 +16.6
01 16.03 З 2 н/о н/о +14.0 +10.0 77 +14 +14 1026.8 1023.3 +13.1 +16.6
02 16.03 З 2 н/о н/о +15.4 +10.8 74 +16 +16 1027.1 1023.6 +13.3 +16.6
03 16.03 ЮВ 1 н/о н/о +15.6 +10.4 71 +17 +17 1026.9 1023.4 +13.3 +16.6
04 16.03 С 1 н/о н/о +17.9 +9.3 57 +19 +19 1027.2 1023.7 +13.3 +18.1
05 16.03 ЮВ 2 н/о н/о +18.4 +9.5 56 +19 +19 1027.3 1023.8 +13.3 +19.9
06 16.03 ЮЗ 2 н/о н/о +17.8 +8.6 55 +19 +19 1026.9 1023.4 +13.3 +19.9
07 16.03 З 2 н/о н/о +19.7 +9.0 50 +21 +21 комфорт 1026.3 1022.9 +13.3 +19.9
08 16.03 ЮЗ 2 н/о н/о +19.5 +10.2 55 +21 +21 комфорт 1026.6 1023.1 +13.3 +20.2
09 16.03 С 2 н/о н/о +19.6 +9.2 51 +21 +21 комфорт 1026.0 1022.6 +13.3 +20.4
10 16.03 СЗ 2 н/о н/о +19.7 +10.1 54 +21 +21 комфорт 1025.7 1022.3 +13.3 +20.4
11 16.03 СЗ 2 н/о н/о +18.8 +9.8 56 +20 +20 1025.8 1022.3 +13.3 +20.4
12 16.03 СЗ 1 н/о н/о +18.5 +10.6 60 +20 +20 1025.7 1022.2 +13.3 +20.4
13 16.03 З 1 н/о н/о +15.6 +9.7 68 +16 +16 1025.8 1022.3 +13.3 +20.4
14 16.03 ЮЗ 2 н/о н/о +14.1 +9.1 72 +14 +14 1026.2 1022.7 +13.3 +20.4
15 16.03 ЮЗ 2 н/о н/о +15.2 +9.8 70 +15 +15 1027.2 1023.7 +13.3 +20.4
16 16.03 ЮЗ 2 н/о н/о +15.1 +9.2 68 +15 +15 1027.3 1023.8 +13.3 +20.4
17 16.03 ЮЗ 2 н/о н/о +15.6 +9.5 67 +16 +16 1027.5 1024.0 +13.3 +20.4
18 16.03 ЮЗ 2 н/о н/о +15.6 +9.9 69 +16 +16 1027.4 1023.9 +13.3 +20.4
19 16.03 ЮЗ 1 н/о н/о +16.1 +10.2 68 +17 +17 1027.3 1023.8 +13.5 +20.4
20 16.03 З 1 н/о н/о +15.6 +10.1 70 +16 +16 1027.1 1023.6 +13.8 +20.4
21 16.03 ЮЗ 2 н/о н/о +15.4 +10.4 72 +16 +16 1027.1 1023.6 +13.8 +20.4
23 16.03 ЮЗ 2 н/о н/о +15.3 +11.1 76 +15 +15 1026.9 1023.4 +13.8 +20.4
00 17.03 З 2 н/о н/о +15.7 +11.1 74 +16 +16 1027.1 1023.6 +13.8 +20.4
01 17.03 ЮЗ 3 н/о н/о +16.1 +10.2 68 +16 +16 1027.4 1023.9 +13.8 +20.4
02 17.03 ЮЗ 2 н/о н/о +15.7 +10.2 70 +16 +16 1027.8 1024.3 +13.8 +20.4
03 17.03 В 1 н/о н/о +19.9 +11.9 60 +23 +23 комфорт 1027.8 1024.4 +13.8 +20.4
04 17.03 З 1 н/о н/о +18.1 +11.2 64 +19 +19 1028.2 1024.7 +13.8 +20.4
05 17.03 СВ 2 н/о н/о +18.4 +12.6 69 +20 +20 1028.3 1024.8 +13.8 +20.4
06 17.03 СВ 2 н/о н/о +18.9 +12.9 68 +21 +21 комфорт 1028.4 1024.9 +13.8 +20.8
07 17.03 СВ 1 н/о н/о +19.3 +13.2 68 +22 +22 комфорт 1028.1 1024.6 +13.8 +20.8
08 17.03 С 1 н/о н/о +19.2 +11.7 62 +21 +21 комфорт 1028.1 1024.6 +13.8 +20.8
09 17.03 С 1 н/о н/о +19.2 +11.5 61 +21 +21 комфорт 1027.8 1024.3 +13.8 +20.8
10 17.03 СВ 2 н/о н/о +18.9 +11.2 61 +20 +20 1027.6 1024.1 +13.8 +20.8
11 17.03 СВ 2 н/о н/о +18.8 +11.6 63 +20 +20 1027.7 1024.2 +13.8 +20.8
12 17.03 С 2 н/о н/о +19.2 +12.2 64 +21 +21 комфорт 1028.1 1024.6 +13.8 +20.8
13 17.03 СЗ 2 н/о н/о +17.7 +11.3 66 +18 +18 1028.5 1025.0 +13.8 +20.8
14 17.03 ЮЗ 2 н/о н/о +15.0 +10.0 72 +15 +15 1029.1 1025.6 +14.1 +20.8
15 17.03 Ю 1 н/о н/о +14.2 +9.8 75 +15 +15 1029.9 1026.4 +14.2 +20.8
16 17.03 ЮЗ 2 н/о н/о +14.0 +10.2 78 +14 +14 1030.0 1026.5 +13.7 +20.8
17 17.03 ЮЗ 2 н/о н/о +14.1 +10.3 78 +14 +14 1030.0 1026.5 +13.6 +20.8
18 17.03 ЮЗ 2 н/о н/о +13.8 +10.0 78 +13 +13 1030.2 1026.7 +13.6 +20.8
19 17.03 ЮЗ 2 н/о н/о +13.8 +10.2 79 +13 +13 1030.3 1026.8 +13.2 +20.8
20 17.03 ЮЗ 2 н/о н/о +14.0 +10.0 77 +13 +13 1030.0 1026.5 +13.2 +20.8
21 17.03 ЮЗ 2 н/о н/о +13.9 +10.7 81 +13 +13 1029.5 1026.0 +13.2 +20.8
22 17.03 ЮЗ 2 н/о н/о +14.0 +10.8 81 +13 +13 1029.5 1026.0 +13.2 +20.8
23 17.03 ЮЗ 2 н/о н/о +14.5 +10.9 79 +14 +14 1029.4 1025.9 +13.2 +20.8
00 18.03 З 2 н/о н/о +15.8 +11.8 77 +16 +16 1029.5 1026.0 +13.2 +20.8
01 18.03 ЮВ 1 н/о н/о +13.6 +9.8 78 +15 +15 1029.8 1026.3 +13.2 +20.8
02 18.03 З 1 н/о н/о +17.5 +12.2 71 +19 +19 1030.3 1026.8 +13.2 +20.8
03 18.03 ЮЗ 3 н/о н/о +19.2 +12.9 67 +21 +21 комфорт 1030.2 1026.7 +13.2 +20.8
04 18.03 СЗ 1 н/о н/о +19.4 +13.1 67 +22 +22 комфорт 1030.2 1026.7 +13.2 +20.8
05 18.03 С 3 н/о н/о +21.1 +14.7 67 +24 +24 комфорт 1030.0 1026.6 +13.2 +20.9
06 18.03 СЗ 2 н/о н/о +20.0 +14.1 69 +23 +23 комфорт 1029.8 1026.3 +13.2 +21.4
07 18.03 С 2 н/о н/о +21.4 +14.5 65 +24 +24 комфорт 1029.4 1026.0 +13.2 +21.9
08 18.03 В 2 н/о н/о +21.2 +13.9 63 +24 +24 комфорт 1029.3 1025.9 +13.2 +22.0
09 18.03 В 1 н/о н/о +20.4 +13.8 66 +24 +24 комфорт 1029.0 1025.6 +13.2 +22.0
10 18.03 СВ 1 н/о н/о +19.3 +13.7 70 +22 +22 комфорт 1029.0 1025.5 +13.2 +22.0
11 18.03 З 2 н/о н/о +20.7 +13.6 64 +24 +24 комфорт 1028.8 1025.4 +13.2 +22.0
12 18.03 З 3 н/о н/о +19.6 +13.5 68 +22 +22 комфорт 1028.9 1025.4 +13.2 +22.0
13 18.03 ЮЗ 1 н/о н/о +17.3 +12.0 71 +19 +19 1029.0 1025.5 +13.2 +22.0
14 18.03 штиль 0 н/о н/о +14.8 +11.4 80 +15 +15 1029.2 1025.7 +13.2 +22.0
15 18.03 Ю 1 н/о н/о +14.4 +11.7 84 +15 +15 1029.8 1026.3 +13.2 +22.0
16 18.03 Ю 1 н/о н/о +13.6 +11.3 86 +14 +14 1029.7 1026.2 +13.2 +22.0
17 18.03 Ю 2 н/о н/о +15.3 +12.2 82 +15 +15 1029.6 1026.1 +13.2 +22.0
18 18.03 ЮЗ 1 н/о н/о +16.0 +13.3 84 +17 +17 1029.4 1025.9 +13.2 +22.0
19 18.03 ЮЗ 2 н/о н/о +14.5 +12.0 85 +14 +14 1029.3 1025.8 +13.3 +22.0
20 18.03 ЮЗ 2 н/о н/о +14.4 +11.5 83 +14 +14 1029.0 1025.5 +13.3 +22.0
21 18.03 ЮЗ 2 н/о н/о +13.8 +11.1 84 +14 +14 1028.6 1025.1 +13.3 +22.0
22 18.03 ЮЗ 2 н/о н/о +14.3 +11.8 85 +14 +14 1028.3 1024.8 +13.3 +22.0
23 18.03 ЮЗ 2 н/о н/о +14.1 +12.1 88 +14 +14 1028.0 1024.5 +13.5 +22.0
00 19.03 З 1 н/о н/о +15.0 +13.4 90 +15 +15 1027.9 1024.4 +13.5 +22.0
01 19.03 ЮЗ 1 н/о н/о +15.7 +14.1 90 +17 +17 1027.8 1024.3 +13.5 +22.0
02 19.03 СЗ 2 н/о н/о +17.7 +12.8 73 +18 +18 1027.9 1024.4 +13.6 +22.0
03 19.03 СЗ 3 н/о н/о +18.4 +12.6 69 +19 +19 1027.7 1024.2 +13.6 +22.0
04 19.03 СЗ 3 н/о н/о +19.3 +12.3 64 +21 +21 комфорт 1027.8 1024.3 +13.6 +22.0
05 19.03 СЗ 3 н/о н/о +20.2 +13.4 65 +23 +23 комфорт 1027.5 1024.1 +13.6 +22.0
06 19.03 СЗ 2 н/о н/о +20.0 +12.0 60 +22 +22 комфорт 1027.1 1023.7 +13.6 +22.0
07 19.03 СЗ 2 н/о н/о +20.2 +12.7 62 +23 +23 комфорт 1026.4 1023.0 +13.6 +22.0
08 19.03 СЗ 2 н/о н/о +20.9 +12.8 60 +24 +24 комфорт 1025.9 1022.5 +13.6 +21.8
09 19.03 СЗ 3 н/о н/о +20.6 +13.3 63 +23 +23 комфорт 1025.4 1022.0 +13.6 +21.2
10 19.03 СЗ 3 н/о н/о +20.9 +13.6 63 +24 +24 комфорт 1025.0 1021.6 +13.6 +21.6
11 19.03 СЗ 3 н/о н/о +19.4 +12.6 65 +21 +21 комфорт 1024.9 1021.5 +13.6 +21.6
12 19.03 СЗ 2 н/о н/о +18.7 +12.0 65 +20 +20 1024.8 1021.3 +13.6 +21.6
13 19.03 СЗ 2 н/о н/о +18.2 +11.5 65 +19 +19 1024.5 1021.0 +13.6 +21.6
14 19.03 З 2 н/о н/о +17.9 +10.5 62 +19 +19 1024.5 1021.0 +13.6 +21.6
15 19.03 З 1 н/о н/о +17.5 +11.1 66 +19 +19 1025.1 1021.6 +13.6 +21.6
16 19.03 СЗ 2 н/о н/о +18.3 +11.6 65 +19 +19 1025.2 1021.7 +13.6 +21.6
17 19.03 С 2 н/о н/о +18.2 +11.3 64 +19 +19 1024.7 1021.2 +13.7 +21.6
18 19.03 СЗ 2 н/о н/о +18.4 +11.2 63 +20 +20 1024.5 1021.0 +13.7 +21.6
19 19.03 ЮЗ 1 н/о н/о +17.0 +11.0 68 +18 +18 1024.1 1020.6 +13.7 +21.6
20 19.03 штиль 0 н/о н/о +16.9 +11.2 69 +17 +17 1023.9 1020.4 +13.7 +21.6
21 19.03 Ю 1 н/о н/о +17.0 +11.9 72 +19 +19 1023.5 1020.0 +13.8 +21.6
22 19.03 ЮЗ 1 н/о н/о +17.0 +11.9 72 +19 +19 1023.4 1019.9 +14.0 +21.6
23 19.03 Ю 1 н/о н/о +16.2 +13.5 84 +18 +18 1023.2 1019.7 +14.1 +21.6
00 20.03 Ю 1 н/о н/о +16.1 +13.6 85 +17 +17 1023.1 1019.6 +15.0 +21.6
01 20.03 ЮВ 1 н/о н/о +16.8 +13.7 82 +18 +18 1023.3 1019.8 +15.4 +21.6
02 20.03 ЮВ 1 н/о н/о +17.8 +14.3 80 +19 +19 1023.8 1020.3 +15.6 +21.6
03 20.03 В 1 н/о н/о +18.8 +15.7 82 +21 +21 комфорт 1023.9 1020.5 +15.6 +21.6
04 20.03 С 1 н/о н/о +18.7 +15.4 81 +21 +21 комфорт 1024.4 1021.0 +15.6 +21.6
05 20.03 ЮЗ 2 н/о н/о +18.8 +16.4 86 +21 +21 комфорт 1024.2 1020.8 +15.6 +21.6 0.6
06 20.03 Ю 1 н/о н/о +19.2 +14.5 74 +22 +22 комфорт 1023.9 1020.5 +15.6 +21.6 0.6
07 20.03 ЮВ 1 н/о н/о +19.7 +14.7 73 +23 +23 комфорт 1023.6 1020.2 +15.6 +21.6
08 20.03 В 1 н/о н/о +19.1 +15.4 79 +22 +22 комфорт 1023.6 1020.2 +15.6 +21.6
09 20.03 ЮВ 2 н/о н/о +18.7 +16.1 85 +20 +20 1022.9 1019.5 +15.6 +21.6
10 20.03 ЮВ 1 н/о н/о +18.4 +15.6 84 +20 +20 1022.8 1019.4 +15.6 +21.2 0.2
11 20.03 ЮВ 1 н/о н/о +18.0 +16.0 88 +19 +19 1022.9 1019.5 +15.6 +20.3 0.2
12 20.03 ЮВ 1 н/о н/о +18.1 +16.1 88 +19 +19 1022.9 1019.5 +15.6 +20.3 0.4
13 20.03 СВ 2 н/о н/о +18.3 +16.6 90 +20 +20 1022.7 1019.3 +15.6 +20.3
14 20.03 В 1 н/о н/о +18.3 +17.0 92 +20 +20 1022.9 1019.5 +15.6 +20.3 0.4
15 20.03 В 1 н/о н/о +18.4 +17.1 92 +20 +20 1023.0 1019.6 +15.6 +20.3 0.4
16 20.03 СВ 2 н/о н/о +18.5 +17.2 92 +20 +20 1023.2 1019.8 +15.6 +20.3
17 20.03 СВ 2 н/о н/о +18.6 +16.9 90 +20 +20 1023.3 1019.9 +15.6 +20.3
18 20.03 СВ 2 н/о н/о +18.7 +17.0 90 +21 +21 комфорт 1023.2 1019.8 +15.6 +20.3
19 20.03 СВ 2 н/о н/о +18.8 +17.1 90 +21 +21 комфорт 1023.4 1020.0 +15.6 +20.3
20 20.03 СВ 2 н/о н/о +18.8 +17.3 91 +21 +21 комфорт 1023.2 1019.8 +15.6 +20.3
21 20.03 С 2 н/о н/о +18.8 +17.3 91 +21 +21 комфорт 1022.9 1019.5 +15.6 +20.3
22 20.03 С 4 н/о н/о +17.9 +16.4 91 +18 +18 1022.8 1019.4 +15.6 +20.3 2
23 20.03 С 3 н/о н/о +17.4 +16.3 93 +17 +17 1022.6 1019.1 +15.6 +20.3 1
00 21.03 С 2 н/о н/о +17.9 +16.4 91 +18 +18 1022.7 1019.3 +16.1 +20.3 3
01 21.03 С 2 н/о н/о +17.9 +16.8 93 +19 +19 1023.3 1019.9 +16.8 +20.3 1
02 21.03 С 2 н/о н/о +17.8 +16.7 93 +18 +18 1023.9 1020.4 +17.3 +20.3 0.4
03 21.03 СВ 2 н/о н/о +18.2 +17.0 93 +19 +19 1024.0 1020.6 +17.3 +20.3 2
04 21.03 С 4 н/о н/о +18.0 +16.8 93 +18 +18 1024.9 1021.4 +17.3 +20.3 0.8
05 21.03 С 3 н/о н/о +17.9 +16.9 94 +18 +18 1025.1 1021.6 +17.3 +20.3 2
06 21.03 СВ 4 н/о н/о +18.1 +17.3 95 +18 +18 1024.9 1021.4 +17.3 +20.3 3
07 21.03 СВ 3 н/о н/о +18.2 +17.4 95 +19 +19 1025.2 1021.7 +17.3 +20.3
08 21.03 СВ 3 н/о н/о +17.8 +17.0 95 +18 +18 1025.1 1021.6 +17.3 +19.3 0.4
09 21.03 СВ 2 н/о н/о +17.8 +16.8 94 +18 +18 1025.3 1021.8 +17.3 +19.3 2
10 21.03 СВ 3 н/о н/о +17.9 +16.8 93 +18 +18 1025.5 1022.0 +17.3 +18.9 0.4
11 21.03 С 3 н/о н/о +18.4 +17.1 92 +19 +19 1025.3 1021.9 +17.3 +18.9
12 21.03 СВ 2 н/о н/о +17.8 +16.3 91 +18 +18 1026.0 1022.5 +17.3 +18.9 0.4
13 21.03 В 1 н/о н/о +18.2 +16.7 91 +20 +20 1026.5 1023.0 +17.3 +18.9
14 21.03 СВ 2 н/о н/о +18.3 +17.0 92 +20 +20 1026.7 1023.2 +17.3 +18.9
16 21.03 В 1 н/о н/о +18.0 +16.7 92 +20 +20 1027.7 1024.2 +17.3 +18.9
17 21.03 В 1 н/о н/о +18.2 +16.4 89 +20 +20 1028.0 1024.5 +17.3 +18.9
18 21.03 ЮВ 1 н/о н/о +17.8 +16.0 89 +19 +19 1028.2 1024.7 +17.3 +18.9
19 21.03 ЮВ 1 н/о н/о +17.2 +15.5 90 +18 +18 1028.3 1024.8 +17.3 +18.9
20 21.03 ЮВ 2 н/о н/о +16.9 +15.2 90 +17 +17 1028.5 1025.0 +16.7 +18.9
21 21.03 ЮВ 1 н/о н/о +17.3 +15.8 91 +18 +18 1028.6 1025.1 +16.7 +18.9
22 21.03 Ю 1 н/о н/о +17.5 +16.0 91 +19 +19 1028.6 1025.1 +16.7 +18.6
23 21.03 ЮВ 1 н/о н/о +17.9 +16.2 90 +19 +19 1028.8 1025.3 +16.7 +18.6
00 22.03 ЮВ 1 н/о н/о +18.1 +16.4 90 +19 +19 1028.8 1025.3 +16.7 +18.6
01 22.03 В 1 н/о н/о +18.0 +16.3 90 +19 +19 1029.1 1025.6 +16.7 +18.6
02 22.03 В 2 н/о н/о +19.6 +17.2 86 +23 +23 комфорт 1029.4 1026.0 +16.7 +19.6
03 22.03 В 2 н/о н/о +21.0 +17.4 80 +26 +26 душно 1029.6 1026.2 +16.7 +21.0
04 22.03 В 2 н/о н/о +21.7 +17.7 78 +26 +26 душно 1030.0 1026.6 +16.7 +21.7
05 22.03 В 2 н/о н/о +22.1 +18.1 78 +27 +27 душно 1030.1 1026.7 +16.7 +22.2
06 22.03 В 2 н/о н/о +22.2 +18.2 78 +27 +27 душно 1030.0 1026.6 +16.7 +22.2
07 22.03 В 2 н/о н/о +22.2 +18.0 77 +27 +27 душно 1029.9 1026.5 +16.7 +22.5
09 22.03 В 2 н/о н/о +22.1 +17.9 77 +27 +27 душно 1029.5 1026.1 +16.7 +22.5
10 22.03 В 2 н/о н/о +22.0 +17.4 75 +26 +26 душно 1029.3 1025.9 +16.7 +22.5
12 22.03 В 2 н/о н/о +20.1 +16.3 79 +24 +24 комфорт 1029.5 1026.1 +16.7 +22.5
13 22.03 СВ 2 н/о н/о +18.9 +15.9 83 +21 +21 комфорт 1029.8 1026.3 +16.7 +22.5
14 22.03 В 2 н/о н/о +18.5 +16.5 88 +20 +20 1030.1 1026.6 +16.7 +22.5
15 22.03 В 2 н/о н/о +18.1 +16.1 88 +19 +19 1030.5 1027.0 +16.7 +22.5
16 22.03 В 2 н/о н/о +18.1 +16.3 89 +19 +19 1030.6 1027.1 +16.7 +22.5

 

Местоположение метеостанции Мартен-де-Вивье (Франц. Южн. Территории): широта -37.80 долгота 77.50 высота над уровнем моря 29 м.

В архиве по умолчанию представлена погода в Мартен-де-Вивье за последнюю неделю. Архивные данные за месяц целиком и за предыдущие месяцы, начиная с января 2011 года, Вы можете получить, выбрав интересующий диапазон дат из раскрывающегося списка и нажав кнопку "Ввод!".


*Определитесь, кто Вы:
робот инопланетянин человек

Внимание! Время в таблицах - всемирное. Для получения местного времени необходимо прибавить поправку, которая равна 5 ч.

Смотрите также архив погоды в соседних городах и на ближайших метеорологических станциях:

Погода в Порт-о-Франсе (Франц. Южн. Территории) (1406 км)
Погода на Острове Херд (Австралия) (1727 км)
Погода в Аэропорту сэра Г. Дюваля (Маврикий) (2428 км)
Погода на Родригесе (Маврикий) (2432 км)
Погода в Аэропорту сэра С. Рамгулама (Маврикий) (2716 км)
Погода в Вакоасе (Маврикий) (2739 км)

Пояснения к столбцам:

Ветер - указаны скорость ветра в м/с - средняя за 10 мин, порывы в срок и между сроками (в фигурных скобках) и направление, откуда дует ветер: С - северный, СВ - северо-восточный, В - восточный, ЮВ - юго-восточный, Ю - южный, ЮЗ - юго-западный, З - западный, СЗ - северо-западный.
Видимость - горизонтальная дальность видимости в метрах или километрах. При видимости от 1 до 10 км при отсутствии осадков обычно наблюдается дымка, при ухудшении видимости до 1 км и менее - туман. В сухую погоду видимость может ухудшаться дымом, пылью или мглою.
Явления - указаны атмосферные явления, наблюдавшиеся в срок или в последний час перед сроком; фигурными скобками обозначены явления, наблюдавшиеся между сроками (за 1-3 часа до срока); квадратными скобками обозначены град или гололедные отложения с указанием их диаметра в мм.
Облачность - указаны через наклонную черту общая и нижняя облачность в баллах и высота нижней границы облаков в метрах; квадратными скобками обозначены формы облаков: Ci - перистые, Cs - перисто-слоистые, Cc - перисто-кучевые, Ac - высококучевые, As - высокослоистые, Sc - слоисто-кучевые, Ns - слоисто-дождевые, Cu - кучевые, Cb - кучево-дождевые. Подробнее классификацию облаков см. в Атласе облаков (PDF).
T - Температура воздуха - температура, измеренная на высоте 2 м над землей.
Td - Температура точки росы - температура, при понижении до которой содержащийся в воздухе водяной пар достигнет насыщения.
f - Относительная влажность воздуха - влажноcть воздуха, измеренная на высоте 2 м над землей.
Te - Эффективная температура - температура, которую ощущает одетый по сезону человек в тени. Характеристика душности погоды. При расчете учитывается влияние влажности воздуха и скорости ветра на теплоощущения человека.
Tes - Эффективная температура на солнце - температура, которую ощущает человек, с поправкой на солнечный нагрев. Характеристика знойности погоды. Зависит от высоты солнца над горизонтом, облачности и скорости ветра. Ночью, в пасмурную погоду, а также при ветре 12 м/с и более поправка равна нулю.
P - Атмосферное давление - приведенное к уровню моря атмосферное давление.
Po - Атмосферное давление - измеренное на уровне метеостанции атмосферное давление.
Tmin - Минимальная температура - минимум температуры воздуха на высоте 2 м над землей.
Tmax - Максимальная температура - максимум температуры воздуха на высоте 2 м над землей.
R - Количество осадков - Количество выпавших осадков за период времени, мм. При наведении курсора мыши на число - период времени, за который выпало указанное количество осадков.
R24 - Количество осадков - Количество выпавших осадков за 24 часа, мм.
S - Снежный покров - Высота снежного покрова, см. При наведении курсора мыши на число - состояние снежного покрова и степень покрытия местности в баллах.